This is the latest recevied weather packets stored in our database for station/object DK0GS-10. If no packets are shown the sender has not sent any weather packets the latest 10 day(s).
| Time | Temp. | Humidity | Pressure | Rain* | Wind** | Luminosity | Snow |
|---|---|---|---|---|---|---|---|
| 1778114121 | 8.89° C | 96% | 1007.1 hPa | 1.27 mm | - | - | - |
| 1778111771 | 9.44° C | 96% | 1007 hPa | 2.03 mm | - | - | - |
| 1778107535 | 9.44° C | 96% | 1006.6 hPa | 1.52 mm | - | - | - |
| 1778101523 | 8.89° C | 96% | 1006.2 hPa | 0.25 mm | - | - | - |
| 1778100323 | 9.44° C | 96% | 1006.3 hPa | 0.25 mm | - | - | - |
| 1778094362 | 10.56° C | 95% | 1005.6 hPa | 0.76 mm | - | - | - |
| 1778088323 | 11.67° C | 93% | 1004.8 hPa | 0 mm | - | - | - |
| 1778085923 | 12.22° C | 92% | 1004.6 hPa | 0 mm | - | - | - |
| 1778079322 | 12.78° C | 92% | 1004.4 hPa | 0 mm | - | - | - |
| 1778078123 | 12.22° C | 92% | 1004.4 hPa | 0 mm | - | - | - |
| 1778077522 | 12.22° C | 92% | 1004.4 hPa | 0 mm | - | - | - |
| 1778076922 | 12.22° C | 93% | 1004.3 hPa | 0 mm | - | - | - |
| 1778075722 | 12.22° C | 94% | 1004.3 hPa | 0 mm | - | - | - |
| 1778075147 | 12.22° C | 93% | 1004.3 hPa | 0 mm | - | - | - |
| 1778071522 | 11.67° C | 96% | 1004.3 hPa | 0 mm | - | - | - |
| 1778070922 | 11.67° C | 96% | 1004.3 hPa | 0 mm | - | - | - |
| 1778070361 | 11.67° C | 96% | 1004.3 hPa | 0 mm | - | - | - |
| 1778064922 | 11.11° C | 97% | 1004 hPa | 0 mm | - | - | - |
| 1778062522 | 11.11° C | 97% | 1003.9 hPa | 0 mm | - | - | - |
| 1778060722 | 11.11° C | 97% | 1003.8 hPa | 0 mm | - | - | - |
| 1778056522 | 10.56° C | 97% | 1003.4 hPa | 1.02 mm | - | - | - |
| 1778053522 | 10.56° C | 97% | 1003.3 hPa | 1.27 mm | - | - | - |
| 1778050572 | 10.56° C | 97% | 1003.4 hPa | 0.51 mm | - | - | - |
| 1778049336 | 10° C | 97% | 1003.3 hPa | 0.25 mm | - | - | - |
| 1778047522 | 10° C | 97% | 1003.1 hPa | 0.51 mm | - | - | - |
* Rain latest hour (hover to see other rain measurements)
** Current wind speed in m/s (hover to see current wind gust speed)